KC2ASA Weather Reports


Display with metric or nautical units.
time (UTC)temp
F
wind
direction
speed
MPH
gust
MPH
rain 1hr
in
rain 24hr
in
rain mn
in
humidity
%
barometer
mb
20191122201522 44 141 1.0 7.0 0.00 0.03 0.03 76 1007.2
20191122200004 44 122 1.0 5.0 0.00 0.03 0.03 77 1006.9
20191122194508 45 226 1.0 7.0 0.01 0.03 0.03 75 1006.4
20191122193009 45 135 3.0 7.0 0.01 0.03 0.03 74 1006.3
20191122191718 45 142 3.0 11.0 0.01 0.03 0.03 75 1006.3
20191122191605 45 236 3.0 11.0 0.01 0.03 0.03 75 1006.3
20191122190158 46 194 3.0 6.0 0.01 0.03 0.03 80 1006.1
20191122184624 47 146 0.0 3.0 0.01 0.02 0.02 89 1005.7
20191122183149 47 113 1.0 4.0 0.02 0.02 0.02 88 1006.0
20191122181711 48 128 0.0 3.0 0.02 0.02 0.02 88 1006.3
20191122180216 49 181 1.0 9.0 0.02 0.02 0.02 88 1006.1
20191122174652 50 188 3.0 9.0 0.01 0.01 0.01 86 1005.9
20191122173127 52 204 1.0 9.0 0.00 0.00 0.00 83 1005.1
20191122171704 52 199 2.0 6.0 0.00 0.00 0.00 80 1005.0
20191122170139 52 260 2.0 7.0 0.00 0.00 0.00 79 1005.4
20191122164629 52 235 0.0 4.0 0.00 0.00 0.00 75 1005.4
20191122163049 52 218 0.0 2.0 0.00 0.00 0.00 70 1006.0
20191122161741 52 222 1.0 4.0 0.00 0.00 0.00 69 1006.5
20191122160104 51 224 0.0 4.0 0.00 0.00 0.00 69 1006.9
20191122154604 51 215 1.0 4.0 0.00 0.00 0.00 70 1007.1
20191122153142 50 218 1.0 4.0 0.00 0.00 0.00 70 1006.9
20191122151602 50 235 1.0 4.0 0.00 0.00 0.00 70 1007.4
20191122150104 50 210 1.0 3.0 0.00 0.00 0.00 70 1007.7
20191122144616 49 225 1.0 3.0 0.00 0.00 0.00 72 1008.1
20191122143113 49 210 0.0 1.0 0.00 0.00 0.00 73 1008.2
20191122141534 48 218 1.0 3.0 0.00 0.00 0.00 73 1008.4
20191122140029 48 218 1.0 3.0 0.00 0.00 0.00 73 1008.3
20191122134524 47 120 0.0 2.0 0.00 0.00 0.00 74 1008.3
20191122133023 47 227 1.0 3.0 0.00 0.00 0.00 73 1008.1
20191122131521 47 212 2.0 4.0 0.00 0.00 0.00 74 1008.6
20191122130012 46 218 0.0 3.0 0.00 0.00 0.00 75 1009.0
20191122124513 46 225 0.0 2.0 0.00 0.00 0.00 76 1009.5
20191122123010 45 229 0.0 1.0 0.00 0.00 0.00 75 1009.2
20191122121502 45 181 0.0 1.0 0.00 0.00 0.00 76 1009.7
20191122120216 45 181 0.0 1.0 0.00 0.00 0.00 75 1009.8
20191122114703 45 222 0.0 2.0 0.00 0.00 0.00 75 1010.1
20191122113216 45 88 0.0 2.0 0.00 0.00 0.00 74 1010.3
20191122111642 45 140 0.0 2.0 0.00 0.00 0.00 74 1010.2
20191122110218 45 219 0.0 2.0 0.00 0.00 0.00 73 1010.6
20191122104658 45 215 0.0 1.0 0.00 0.00 0.00 73 1010.6
20191122103126 45 223 0.0 2.0 0.00 0.00 0.00 73 1010.8
20191122101751 45 153 0.0 1.0 0.00 0.00 0.00 74 1011.1
20191122100128 45 227 0.0 1.0 0.00 0.00 0.00 74 1011.1
20191122094625 45 122 0.0 1.0 0.00 0.00 0.00 74 1011.0
20191122093114 45 121 0.0 3.0 0.00 0.00 0.00 73 1011.3
20191122091615 45 215 0.0 4.0 0.00 0.00 0.00 72 1011.5
20191122090049 45 216 1.0 3.0 0.00 0.00 0.00 72 1011.6
20191122084533 45 235 0.0 2.0 0.00 0.00 0.00 73 1011.8
20191122083042 45 191 0.0 1.0 0.00 0.00 0.00 71 1012.2
20191122081525 45 225 1.0 2.0 0.00 0.00 0.00 72 1012.1
20191122080029 45 223 1.0 3.0 0.00 0.00 0.00 72 1012.7
20191122074559 45 212 0.0 2.0 0.00 0.00 0.00 73 1012.9
20191122073037 45 204 0.0 1.0 0.00 0.00 0.00 73 1013.1
20191122071526 45 221 0.0 1.0 0.00 0.00 0.00 74 1013.0
20191122070026 45 221 0.0 1.0 0.00 0.00 0.00 74 1013.3
20191122064527 45 221 0.0 1.0 0.00 0.00 0.00 74 1013.9
20191122063012 46 204 0.0 3.0 0.00 0.00 0.00 69 1014.0
20191122061517 46 210 0.0 5.0 0.00 0.00 0.00 67 1014.1
20191122060003 46 194 1.0 3.0 0.00 0.00 0.00 67 1013.9
20191122054811 46 218 1.0 4.0 0.00 0.00 0.00 67 1014.4
20191122053221 46 210 1.0 3.0 0.00 0.00 0.00 67 1014.7
20191122051608 46 210 1.0 5.0 0.00 0.00 0.00 67 1014.7
20191122050141 46 207 0.0 6.0 0.00 0.00 0.00 68 1015.3
20191122044743 46 207 1.0 3.0 0.00 0.00 0.00 68 1015.3
20191122043224 46 135 0.0 3.0 0.00 0.00 0.00 68 1015.0
20191122041710 46 209 0.0 3.0 0.00 0.00 0.00 68 1015.1
20191122040147 46 205 1.0 3.0 0.00 0.00 0.00 69 1015.3
20191122034707 46 212 0.0 2.0 0.00 0.00 0.00 69 1015.7
20191122033122 46 227 0.0 3.0 0.00 0.00 0.00 69 1015.8
20191122031652 46 218 0.0 1.0 0.00 0.00 0.00 70 1016.2
20191122030210 46 219 0.0 2.0 0.00 0.00 0.00 70 1016.3
20191122024622 46 218 0.0 2.0 0.00 0.00 0.00 70 1016.6
20191122023119 46 220 0.0 1.0 0.00 0.00 0.00 71 1016.8
20191122021559 45 215 0.0 2.0 0.00 0.00 0.00 74 1017.0
20191122020048 43 218 1.0 2.0 0.00 0.00 0.00 79 1017.3
20191122014639 43 219 0.0 1.0 0.00 0.00 0.00 82 1017.5
20191122013149 43 219 0.0 1.0 0.00 0.00 0.00 82 1017.7
20191122013008 43 220 0.0 1.0 0.00 0.00 0.00 82 1017.6
20191122010041 42 219 0.0 1.0 0.00 0.00 0.00 83 1018.0
20191122004530 42 219 0.0 1.0 0.00 0.00 0.00 83 1018.2
20191122003107 42 219 0.0 1.0 0.00 0.00 0.00 84 1018.4
20191122001555 41 220 0.0 0.0 0.00 0.00 0.00 84 1018.4
20191122000103 41 220 0.0 1.0 0.00 0.00 0.00 83 1018.6
20191121234555 42 220 0.0 0.0 0.00 0.00 0.00 83 1018.8
20191121233038 42 220 0.0 0.0 0.00 0.00 0.00 82 1018.8
20191121231551 43 219 0.0 0.0 0.00 0.00 0.00 81 1018.7
20191121230147 43 219 0.0 0.0 0.00 0.00 0.00 80 1018.9
20191121224526 43 220 0.0 0.0 0.00 0.00 0.00 78 1018.9
20191121223032 44 219 0.0 0.0 0.00 0.00 0.00 76 1019.1
20191121221540 45 219 0.0 1.0 0.00 0.00 0.00 73 1019.3
20191121220029 45 219 0.0 1.0 0.00 0.00 0.00 71 1019.2
20191121214524 45 219 0.0 1.0 0.00 0.00 0.00 72 1019.2
20191121213025 46 224 0.0 1.0 0.00 0.00 0.00 69 1019.2
20191121211525 47 224 0.0 2.0 0.00 0.00 0.00 66 1019.2
20191121210050 49 224 0.0 1.0 0.00 0.00 0.00 63 1019.2
20191121204524 51 224 0.0 1.0 0.00 0.00 0.00 57 1019.2
20191121203016 52 224 0.0 2.0 0.00 0.00 0.00 53 1019.5